TimeEST,TemperatureF,Dew PointF,Humidity,Sea Level PressureIn,VisibilityMPH,Wind Direction,Wind SpeedMPH,Gust SpeedMPH,PrecipitationIn,Events,Conditions,WindDirDegrees,DateUTC
12:53 AM,39.9,25.0,55,30.15,10.0,South,9.2,-,N/A,,Mostly Cloudy,180,2013-12-01 05:53:00
1:53 AM,39.9,25.0,55,30.13,10.0,South,10.4,-,N/A,,Clear,180,2013-12-01 06:53:00
2:53 AM,39.9,24.1,53,30.13,10.0,South,10.4,-,N/A,,Clear,180,2013-12-01 07:53:00
3:53 AM,39.0,24.1,55,30.12,10.0,South,9.2,-,N/A,,Clear,180,2013-12-01 08:53:00
4:53 AM,37.9,24.1,57,30.10,10.0,South,8.1,-,N/A,,Clear,180,2013-12-01 09:53:00
5:53 AM,37.9,24.1,57,30.11,10.0,South,10.4,-,N/A,,Partly Cloudy,180,2013-12-01 10:53:00
6:53 AM,39.9,25.0,55,30.10,10.0,South,6.9,-,N/A,,Overcast,180,2013-12-01 11:53:00
7:53 AM,39.9,25.0,55,30.11,10.0,South,8.1,-,N/A,,Overcast,190,2013-12-01 12:53:00
8:53 AM,37.0,26.1,65,30.12,10.0,South,6.9,-,N/A,,Clear,190,2013-12-01 13:53:00
9:53 AM,44.1,28.0,53,30.12,10.0,SSW,9.2,-,N/A,,Clear,200,2013-12-01 14:53:00
10:53 AM,46.9,30.9,54,30.11,10.0,SW,11.5,-,N/A,,Clear,220,2013-12-01 15:53:00
11:53 AM,50.0,33.1,52,30.08,10.0,WSW,9.2,-,N/A,,Clear,250,2013-12-01 16:53:00
12:53 PM,53.1,34.0,48,30.05,10.0,WSW,10.4,-,N/A,,Clear,250,2013-12-01 17:53:00
1:53 PM,53.1,35.1,50,30.03,10.0,West,11.5,-,N/A,,Clear,260,2013-12-01 18:53:00
2:53 PM,54.0,36.0,51,30.01,10.0,West,11.5,-,N/A,,Clear,280,2013-12-01 19:53:00
3:53 PM,53.1,36.0,52,30.00,10.0,West,6.9,-,N/A,,Clear,260,2013-12-01 20:53:00
4:53 PM,50.0,35.1,57,29.99,10.0,NW,3.5,-,N/A,,Clear,320,2013-12-01 21:53:00
5:53 PM,46.9,34.0,61,30.00,10.0,Calm,Calm,-,N/A,,Clear,0,2013-12-01 22:53:00
6:53 PM,43.0,34.0,71,30.01,10.0,Calm,Calm,-,N/A,,Clear,0,2013-12-01 23:53:00
7:53 PM,36.0,30.9,82,30.01,10.0,North,4.6,-,N/A,,Clear,350,2013-12-02 00:53:00
8:53 PM,36.0,30.9,82,30.01,8.0,North,4.6,-,N/A,,Clear,10,2013-12-02 01:53:00
9:53 PM,36.0,30.9,82,30.00,8.0,NNE,4.6,-,N/A,,Clear,30,2013-12-02 02:53:00
10:53 PM,36.0,30.0,79,29.99,7.0,NE,3.5,-,N/A,,Clear,50,2013-12-02 03:53:00
11:53 PM,35.1,30.9,85,29.98,7.0,North,3.5,-,N/A,,Clear,10,2013-12-02 04:53:00